Location: Baia Mare
(47.6567°N, 23.5850°E)
Time: 02:25:43
(UTC+03:00)

ISS - Pass Details

Date: 18 July 2018
Orbit: 402 x 408 km, 51.6° (Epoch: 22 July)

Event Time Altitude Azimuth Distance (km) Brightness Sun altitude
Exits shadow 23:25:42 15° 84° (E) 1,203 -1.7 -15.8°
Drops below altitude 10° 23:26:25 10° 78° (ENE) 1,466 -1.2 -15.9°
Sets 23:28:36 0° 69° (ENE) 2,331 -0.1 -16.0°
